TimeEST,TemperatureF,Dew PointF,Humidity,Sea Level PressureIn,VisibilityMPH,Wind Direction,Wind SpeedMPH,Gust SpeedMPH,PrecipitationIn,Events,Conditions,WindDirDegrees,DateUTC
12:15 AM,33.8,25.7,72,29.93,10.0,Calm,Calm,-,N/A,,Scattered Clouds,0,2013-03-03 05:15:00
12:35 AM,32.9,25.3,74,29.94,10.0,Calm,Calm,-,N/A,,Clear,0,2013-03-03 05:35:00
12:55 AM,32.2,23.9,72,29.94,10.0,Calm,Calm,-,N/A,,Clear,0,2013-03-03 05:55:00
1:15 AM,31.3,24.4,76,29.95,10.0,Calm,Calm,-,N/A,,Clear,0,2013-03-03 06:15:00
1:35 AM,30.2,25.9,84,29.95,10.0,WNW,3.5,-,N/A,,Clear,300,2013-03-03 06:35:00
1:55 AM,31.1,22.8,71,29.94,10.0,WNW,3.5,-,N/A,,Clear,300,2013-03-03 06:55:00
2:15 AM,30.9,22.1,70,29.94,10.0,NW,3.5,-,N/A,,Clear,310,2013-03-03 07:15:00
2:35 AM,31.1,21.9,69,29.93,10.0,NW,5.8,-,N/A,,Clear,310,2013-03-03 07:35:00
2:55 AM,30.9,21.0,67,29.93,10.0,NW,4.6,-,N/A,,Clear,310,2013-03-03 07:55:00
3:15 AM,29.8,21.0,70,29.93,10.0,NW,4.6,-,N/A,,Clear,310,2013-03-03 08:15:00
3:35 AM,30.2,20.3,67,29.93,10.0,Calm,Calm,-,N/A,,Clear,0,2013-03-03 08:35:00
3:55 AM,30.2,20.7,68,29.92,10.0,Calm,Calm,-,N/A,,Clear,0,2013-03-03 08:55:00
4:15 AM,29.5,20.8,70,29.93,10.0,Calm,Calm,-,N/A,,Clear,0,2013-03-03 09:15:00
4:35 AM,29.3,19.9,68,29.94,10.0,Calm,Calm,-,N/A,,Clear,0,2013-03-03 09:35:00
4:55 AM,29.3,19.4,67,29.94,10.0,West,3.5,-,N/A,,Clear,280,2013-03-03 09:55:00
5:35 AM,28.9,19.8,69,29.95,10.0,West,5.8,-,N/A,,Clear,280,2013-03-03 10:35:00
5:55 AM,28.8,19.4,68,29.96,10.0,West,3.5,-,N/A,,Clear,260,2013-03-03 10:55:00
6:15 AM,28.6,19.6,69,29.96,10.0,West,3.5,-,N/A,,Clear,260,2013-03-03 11:15:00
6:35 AM,28.2,19.4,70,29.96,10.0,West,3.5,-,N/A,,Clear,260,2013-03-03 11:35:00
6:55 AM,28.0,19.8,71,29.97,10.0,West,3.5,-,N/A,,Clear,270,2013-03-03 11:55:00
7:15 AM,28.6,19.4,69,29.97,10.0,West,3.5,-,N/A,,Clear,270,2013-03-03 12:15:00
7:35 AM,29.5,19.8,67,29.97,10.0,Calm,Calm,-,N/A,,Clear,0,2013-03-03 12:35:00
7:55 AM,30.7,19.6,63,29.98,10.0,WNW,3.5,-,N/A,,Clear,290,2013-03-03 12:55:00
8:15 AM,32.0,19.4,60,29.98,10.0,NW,5.8,-,N/A,,Clear,310,2013-03-03 13:15:00
8:35 AM,33.1,20.8,61,29.98,10.0,NW,4.6,-,N/A,,Clear,310,2013-03-03 13:35:00
8:55 AM,34.7,21.6,59,29.98,10.0,NNW,4.6,-,N/A,,Clear,330,2013-03-03 13:55:00
9:15 AM,35.6,20.1,53,29.98,10.0,NW,5.8,-,N/A,,Clear,320,2013-03-03 14:15:00
9:35 AM,37.0,18.3,47,29.97,10.0,NNW,9.2,17.3,N/A,,Clear,330,2013-03-03 14:35:00
9:55 AM,37.6,18.3,46,29.97,10.0,NW,12.7,16.1,N/A,,Clear,320,2013-03-03 14:55:00
10:15 AM,38.5,19.8,47,29.98,10.0,WNW,11.5,-,N/A,,Clear,290,2013-03-03 15:15:00
10:35 AM,39.4,19.8,45,29.97,10.0,NW,9.2,-,N/A,,Clear,320,2013-03-03 15:35:00
10:55 AM,39.6,17.8,41,29.97,10.0,WNW,6.9,17.3,N/A,,Clear,290,2013-03-03 15:55:00
11:15 AM,40.3,17.6,40,29.96,10.0,NNW,12.7,17.3,N/A,,Clear,330,2013-03-03 16:15:00
11:35 AM,41.2,16.7,37,29.96,10.0,NW,10.4,17.3,N/A,,Clear,320,2013-03-03 16:35:00
11:55 AM,42.3,16.7,36,29.95,10.0,West,9.2,-,N/A,,Clear,280,2013-03-03 16:55:00
12:15 PM,42.1,16.2,35,29.95,10.0,West,5.8,-,N/A,,Clear,270,2013-03-03 17:15:00
12:35 PM,43.2,16.3,34,29.93,10.0,West,4.6,-,N/A,,Clear,270,2013-03-03 17:35:00
12:55 PM,43.9,15.6,32,29.93,10.0,WNW,9.2,18.4,N/A,,Clear,300,2013-03-03 17:55:00
1:15 PM,44.8,16.2,32,29.91,10.0,NW,12.7,24.2,N/A,,Clear,310,2013-03-03 18:15:00
1:35 PM,45.5,15.8,30,29.90,10.0,WNW,8.1,17.3,N/A,,Clear,300,2013-03-03 18:35:00
1:55 PM,45.0,15.8,31,29.89,10.0,NNW,8.1,17.3,N/A,,Clear,340,2013-03-03 18:55:00
2:15 PM,45.3,14.7,29,29.89,10.0,West,5.8,-,N/A,,Clear,260,2013-03-03 19:15:00
2:35 PM,45.9,15.4,30,29.89,10.0,NW,5.8,-,N/A,,Clear,310,2013-03-03 19:35:00
2:55 PM,46.4,15.8,29,29.89,10.0,West,8.1,-,N/A,,Clear,270,2013-03-03 19:55:00
3:15 PM,47.1,15.8,29,29.89,10.0,NW,4.6,16.1,N/A,,Clear,310,2013-03-03 20:15:00
3:35 PM,46.0,15.4,29,29.89,10.0,West,5.8,-,N/A,,Clear,260,2013-03-03 20:35:00
3:55 PM,46.9,14.9,28,29.89,10.0,West,4.6,-,N/A,,Clear,260,2013-03-03 20:55:00
4:15 PM,46.6,15.8,29,29.88,10.0,WNW,5.8,-,N/A,,Clear,290,2013-03-03 21:15:00
4:55 PM,46.2,15.1,29,29.88,10.0,West,6.9,-,N/A,,Clear,270,2013-03-03 21:55:00
5:15 PM,45.7,16.2,31,29.89,10.0,West,3.5,-,N/A,,Clear,280,2013-03-03 22:15:00
5:35 PM,44.8,16.2,32,29.90,10.0,West,4.6,-,N/A,,Clear,270,2013-03-03 22:35:00
5:55 PM,43.9,17.1,34,29.90,10.0,West,4.6,-,N/A,,Clear,260,2013-03-03 22:55:00
6:15 PM,43.0,17.6,36,29.91,10.0,Calm,Calm,-,N/A,,Clear,0,2013-03-03 23:15:00
6:35 PM,42.1,18.9,39,29.91,10.0,Calm,Calm,-,N/A,,Clear,0,2013-03-03 23:35:00
6:55 PM,39.4,21.6,49,29.91,10.0,Calm,Calm,-,N/A,,Clear,0,2013-03-03 23:55:00
7:35 PM,35.1,22.8,61,29.93,10.0,NW,3.5,-,N/A,,Clear,310,2013-03-04 00:35:00
7:55 PM,38.3,19.8,47,29.95,10.0,NW,5.8,-,N/A,,Clear,310,2013-03-04 00:55:00
8:15 PM,37.0,19.2,49,29.96,10.0,NW,5.8,-,N/A,,Clear,320,2013-03-04 01:15:00
8:35 PM,36.5,18.5,48,29.96,10.0,NW,6.9,-,N/A,,Clear,320,2013-03-04 01:35:00
8:55 PM,36.1,17.1,46,29.97,10.0,NNW,3.5,-,N/A,,Clear,330,2013-03-04 01:55:00
9:15 PM,36.3,16.7,45,29.98,10.0,NW,6.9,-,N/A,,Clear,320,2013-03-04 02:15:00
9:35 PM,36.3,16.2,44,30.00,10.0,NW,8.1,-,N/A,,Clear,320,2013-03-04 02:35:00
9:55 PM,34.9,16.2,46,30.00,10.0,NW,8.1,-,N/A,,Clear,320,2013-03-04 02:55:00
10:15 PM,34.3,16.0,47,30.01,10.0,NW,4.6,-,N/A,,Clear,320,2013-03-04 03:15:00
10:35 PM,33.6,15.8,48,30.01,10.0,Calm,Calm,-,N/A,,Clear,0,2013-03-04 03:35:00
10:55 PM,33.1,15.8,49,30.01,10.0,Calm,Calm,-,N/A,,Clear,0,2013-03-04 03:55:00
11:15 PM,32.5,15.8,50,30.01,10.0,NW,3.5,-,N/A,,Clear,310,2013-03-04 04:15:00
11:35 PM,32.0,15.8,51,30.01,10.0,NW,3.5,-,N/A,,Clear,320,2013-03-04 04:35:00
11:55 PM,32.0,15.8,51,30.01,10.0,NW,4.6,-,N/A,,Clear,310,2013-03-04 04:55:00